COSMOS 2251 DEB, 35448

Orbit data source: Space-Track

COSMOS 2251 DEB, 35448 is space debris in LEO originally from a launch on Wed, 16 Jun 1993 UTC launched from the Plesetsk Missile And Space Complex (PKMTR). The debris from Iridium 33, an American commercial communications satellite, has been tracked extensively since its accidental collision with the defunct Russian satellite Cosmos 2251 in 2009. This event, occurring at high speed in low Earth orbit (LEO), generated thousands of pieces of space debris, significantly increasing the risk of further collisions. The Iridium 33 debris cloud has impacted space traffic management and orbital debris mitigation strategies, making it a subject of ongoing study in space situational awareness.

Loading next visibility...
Identifier
35448, 1993-036AKS
Orbit
LEO
Country
Flag of CISCIS
Related business
Manufacturer
Unknown
Mission
Spacecraft
Bus & Motor
Unknown
Mass
Unknown
Launch date (UTC)
1993-06-16 (33 years ago)
Launch vehicle
Unknown
Launch site
Plesetsk Missile And Space Complex (PKMTR)
Object type
Payload
Rocket body
Debris
Shape & HBR
Unknown shape, 0.1 m
Radar Cross Section
Small (<0.1 m²)

Expand to show TLE details & history
Last TLE update: 18 hours ago

TLE from 18 hours ago
0 COSMOS 2251 DEB
1 35448U 93036AKS 26265.05357665  .00001570  00000-0  36292-3 0  9991
2 35448  73.9002 268.5430 0009890   1.7100 358.4094 14.56061607914564
Epoch: 2026-09-22T01:17Z
TLE epoch observation values (Epoch: 2026-09-22T01:17:09.022Z)
Latitude
-0.00009°
Longitude
-111.66919°
Altitude
701.542 km
Speed
7.509 km/s
True Right ascension
17h 54m 10s
True Declination
0° 00' 00"
Sunlit
Object was in daylight at epoch
Visualization orbit readout
Latitude
Unknown
Longitude
Unknown
Altitude
Unknown
Speed
Unknown
Apparent Right ascension
Unknown
Apparent Declination
Unknown
Sunlit
N/A
Visualization observer readout
Local Sidereal Time
12:22:44
Azimuth
Unknown
Elevation
Unknown
Doppler factor
Unknown
Orbital elements
Apogee altitude
710.537 km
Perigee altitude
696.529 km
Semi-major axis
7,081.67 km
Eccentricity
0.00099
Inclination
73.9002°
RAAN
268.543°
Arg. of periapsis
1.71°
True anomaly
358.40625°
Mean anomaly
358.4094°
Eccentric anomaly
358.40783°
Mean motion
3.642 °/min
Orbital period
98.85 mins
BSTAR
0.00036292
Loading maneuver chart data...
Computing Atmospheric mass density...

Documentation

Showing up to 5 results
|